Location: Jastrz?bniki
(50.3667°N, 20.3833°E)
Time: 09:47:40
(UTC+00:00)

Cosmos 1766 - Pass Details

Date: 05 August 2024
Orbit: 479 x 493 km, 82.5° (Epoch: 09 September)

Event Time Altitude Azimuth Distance (km) Brightness Sun altitude
Exits shadow 01:32:59 23° 221° (SW) 1,069 4.2 -13.3°
Maximum altitude 01:34:55 46° 284° (WNW) 661 3.5 -13.1°
Drops below altitude 10° 01:38:21 11° 359° (N) 1,635 6.4 -12.7°
Sets 01:40:38 0° 6° (N) 2,558 7.7 -12.4°
